Weather Roundup
Issued by NWS

Home | Current Version | Previous Version | Text Only | Print | Product List | Glossary On
Versions: 1 2 3 4 5 6 7 8 9 10 11 12 13 14 15 16 17 18 19 20 21 22 23 24 25 26 27 28 29 30 31 32 33 34 35 36 37 38 39 40 41 42 43 44 45 46 47 48 49 50
000
NZUS93 KARX 052359
HRRWXR

CURRENT HOURLY OBSERVATIONS ACROSS
MUCH OF THE UPPER MISSISSIPPI VALLEY
NATIONAL WEATHER SERVICE LA CROSSE WI
600 PM CST THU MAR 05 2015


...SOUTHEAST MINNESOTA...


CITY           SKY/WX    TMP DP  RH WIND       PRES   REMARKS
ROCHESTER      CLEAR      5  -3  69 S9        30.41F WCI  -9
ROCHESTER/MAYO FAIR      11  -2  56 S7        30.42S WCI   0
WINONA         CLEAR     12   0  57 CALM      30.49S
AUSTIN         CLEAR      9   0  66 S6        30.41F WCI  -1
ALBERT LEA     CLEAR     12   3  67 S8        30.40S WCI   1
DODGE CENTER   CLEAR      7   1  78 S7        30.39F WCI  -5
PRESTON        CLEAR      6  -3  66 SW7       30.43S WCI  -6
OWATONNA       CLEAR     12   3  67 S8        30.39F WCI   1
FARIBAULT      CLEAR     12   1  62 S3        30.40F
$$

...ELSEWHERE IN MINNESOTA...


CITY           SKY/WX    TMP DP  RH WIND       PRES   REMARKS
MINNEAPOLIS    CLEAR     14   0  53 S8        30.41S WCI   3
INTNL FALLS    CLEAR     15  -6  39 SW10      30.13F WCI   2
DULUTH         CLEAR     12  -7  42 SW13      30.23F WCI  -3
RED WING       CLEAR     12   0  57 SW5       30.43F WCI   4
REDWOOD FALLS  CLEAR     19   6  57 S8        30.34F WCI   9
MANKATO        CLEAR     16   1  53 S8        30.39S WCI   5
FAIRMONT       CLEAR     18   3  53 S9        30.36F WCI   6
$$

...SOUTHWEST WISCONSIN...


CITY           SKY/WX    TMP DP  RH WIND       PRES   REMARKS
LA CROSSE      CLEAR      9  -2  61 NW6       30.47S WCI  -1
PRAIRIE DU CHI CLEAR     10  -5  50 SW7       30.51S WCI  -1
BOSCOBEL       CLEAR     11  -4  51 SW9       30.51R WCI  -2
LONE ROCK      NOT AVBL
PLATTEVILLE    CLEAR      9  -4  55 SW5       30.48R WCI   1
FORT MC COY    CLEAR     13  -6  43 W6        30.46S WCI   4
VIROQUA        FAIR      10  -4  54 W6        30.42S WCI   0
WIS DELLS      NOT AVBL
$$

...ELSEWHERE IN WISCONSIN...


CITY           SKY/WX    TMP DP  RH WIND       PRES   REMARKS
MILWAUKEE      CLEAR     14  -6  40 W7        30.49R WCI   4
MADISON        CLEAR     13  -4  46 SW6       30.47R WCI   4
GREEN BAY      CLEAR     11  -5  48 W8        30.43R WCI  -1
EAU CLAIRE     NOT AVBL
BLACK RVR FLS  FAIR      12  -6  44 SW5       30.44S WCI   4
MEDFORD        CLEAR      6 -10  47 SW7       30.34S WCI  -6
WAUSAU         CLEAR      7  -8  50 W6        30.36S WCI  -3
WIS RAPIDS     CLEAR     12  -8  40 W7        30.42S WCI   1
MARSHFIELD     CLEAR      9  -9  44 W6        30.38S WCI  -1
RICE LAKE      CLEAR     10  -5  50 S8        30.40S WCI  -3
$$

...NORTHEAST IOWA...


CITY           SKY/WX    TMP DP  RH WIND       PRES   REMARKS
DECORAH        CLEAR      9  -4  56 W6        30.46R WCI  -1
MASON CITY     CLEAR      9   1  70 S9        30.44S WCI  -4
CHARLES CITY   CLEAR      9   0  66 S8        30.47S WCI  -4
OELWEIN        CLEAR      7  -2  66 S5        30.49S WCI  -2
$$

...ELSEWHERE IN IOWA...


CITY           SKY/WX    TMP DP  RH WIND       PRES   REMARKS
DES MOINES     CLEAR     21   1  41 S6        30.48F WCI  13
IOWA CITY      CLEAR     11  -1  58 SW5       30.57R WCI   3
FORT DODGE     CLEAR     18   3  53 S7        30.43S WCI   8
$$

...NORTHERN ILLINOIS...


CITY           SKY/WX    TMP DP  RH WIND       PRES   REMARKS
CHICAGO-OHARE  CLEAR     13  -2  51 W10       30.50R WCI   0
CHICAGO-MIDWAY CLEAR     16   0  49 W10       30.52R WCI   4
MOLINE         CLEAR     12  -2  53 NW6       30.55R WCI   3
ROCKFORD       CLEAR     10  -4  53 NW5       30.53R WCI   2
PEORIA         CLEAR     13  -1  54 W6        30.56S WCI   4
$$

NOTE: "FAIR" INDICATES FEW OR NO CLOUDS BELOW 12,000 FEET WITH NO
SIGNIFICANT WEATHER AND/OR OBSTRUCTIONS TO VISIBILITY. WIND
SPEEDS ARE IN MILES-PER-HOUR.



USA.gov is the U.S. government's official web portal to all federal, state and local government web resources and services.